TimeAKST,TemperatureF,Dew PointF,Humidity,Sea Level PressureIn,VisibilityMPH,Wind Direction,Wind SpeedMPH,Gust SpeedMPH,PrecipitationIn,Events,Conditions,WindDirDegrees,DateUTC
12:53 AM,1.9,-4.0,76,29.54,10.0,NNW,6.9,-,N/A,,Clear,340,2012-12-18 09:53:00
1:53 AM,1.9,-4.0,76,29.51,10.0,North,5.8,-,N/A,,Clear,360,2012-12-18 10:53:00
3:53 AM,7.0,-0.0,73,29.46,10.0,East,3.5,-,N/A,,Clear,80,2012-12-18 12:53:00
4:53 AM,5.0,-0.9,76,29.44,10.0,North,5.8,-,N/A,,Clear,350,2012-12-18 13:53:00
5:53 AM,7.0,1.9,80,29.42,10.0,North,5.8,-,N/A,,Clear,350,2012-12-18 14:53:00
6:53 AM,12.0,3.0,67,29.40,10.0,NNW,8.1,-,N/A,,Clear,340,2012-12-18 15:53:00
7:53 AM,10.9,3.9,73,29.39,10.0,NW,4.6,-,N/A,,Clear,320,2012-12-18 16:53:00
8:53 AM,19.0,3.9,52,29.37,10.0,NNE,4.6,-,N/A,,Clear,20,2012-12-18 17:53:00
9:53 AM,21.0,6.1,53,29.37,10.0,North,5.8,-,N/A,,Clear,360,2012-12-18 18:53:00
10:53 AM,24.1,7.0,48,29.36,10.0,NNE,6.9,-,N/A,,Clear,30,2012-12-18 19:53:00
11:53 AM,23.0,8.1,53,29.34,10.0,North,12.7,-,N/A,,Overcast,350,2012-12-18 20:53:00
12:53 PM,21.9,8.1,55,29.32,10.0,North,12.7,-,N/A,,Mostly Cloudy,10,2012-12-18 21:53:00
1:53 PM,19.9,7.0,57,29.31,10.0,North,17.3,-,N/A,,Mostly Cloudy,10,2012-12-18 22:53:00
2:53 PM,19.9,8.1,60,29.30,10.0,NNE,15.0,21.9,N/A,,Partly Cloudy,20,2012-12-18 23:53:00
3:53 PM,19.9,7.0,57,29.30,10.0,North,18.4,26.5,N/A,,Clear,10,2012-12-19 00:53:00
4:53 PM,18.0,7.0,62,29.30,10.0,NNE,15.0,26.5,N/A,,Mostly Cloudy,20,2012-12-19 01:53:00
5:53 PM,19.0,7.0,59,29.31,10.0,NNE,16.1,25.3,N/A,,Overcast,20,2012-12-19 02:53:00
6:53 PM,19.9,8.1,60,29.32,10.0,NNE,20.7,31.1,N/A,,Overcast,20,2012-12-19 03:53:00
7:53 PM,19.0,8.1,62,29.33,10.0,NNE,21.9,32.2,N/A,,Overcast,20,2012-12-19 04:53:00
8:53 PM,18.0,7.0,62,29.32,10.0,NNE,23.0,29.9,N/A,,Overcast,20,2012-12-19 05:53:00
9:53 PM,16.0,7.0,68,29.33,10.0,NNE,19.6,31.1,N/A,,Overcast,20,2012-12-19 06:53:00
10:53 PM,16.0,7.0,68,29.34,10.0,North,25.3,38.0,N/A,,Overcast,10,2012-12-19 07:53:00
11:53 PM,16.0,5.0,62,29.35,10.0,North,26.5,39.1,N/A,,Overcast,10,2012-12-19 08:53:00